When you browse on this site, cookies collect data to enhance your experience and personalize the content and advertising you see.
Visit our Privacy Policy to learn more. By continuing to use the site, you agree to this use of cookies and data.
  • en Suisse
  • Liste des pays
  • À 7 jours
  • Température de l'eau
  • Carte météo
  • Widgets météo
  • user-avatar
    Se connecter

    Météo par heure à Lathi

    Ce jour, 7 Avril, Mardi

    Heure Température Précipitation Vent Pression Humidité
    00:00 +1°C° 0 mm 3 m/s 760 mmHg 80%
    01:00 +1°C° 0 mm 3 m/s 759 mmHg 81%
    02:00 +1°C° 0 mm 3 m/s 759 mmHg 81%
    03:00 +1°C° 0 mm 3 m/s 758 mmHg 81%
    04:00 +1°C° 0 mm 3 m/s 757 mmHg 82%
    05:00 +1°C° 0 mm 3 m/s 757 mmHg 82%
    06:00 +2°C° 0 mm 3 m/s 756 mmHg 79%
    07:00 +3°C° 0 mm 4 m/s 756 mmHg 77%
    08:00 +4°C° 0 mm 4 m/s 755 mmHg 74%
    09:00 +6°C° 0 mm 4 m/s 755 mmHg 71%
    10:00 +7°C° 0 mm 4 m/s 754 mmHg 68%
    11:00 +9°C° 0 mm 5 m/s 754 mmHg 64%
    12:00 +9°C° 0 mm 5 m/s 753 mmHg 62%
    13:00 +10°C° 0 mm 5 m/s 753 mmHg 60%
    14:00 +12°C° 0 mm 5 m/s 752 mmHg 58%
    15:00 +12°C° 0 mm 4 m/s 752 mmHg 60%
    16:00 +11°C° 0 mm 4 m/s 751 mmHg 63%
    17:00 +11°C° 0 mm 3 m/s 751 mmHg 66%
    18:00 +10°C° 1 mm 4 m/s 751 mmHg 74%
    19:00 +7°C° 1 mm 4 m/s 752 mmHg 82%
    20:00 +6°C° 1 mm 5 m/s 752 mmHg 89%
    21:00 +6°C° 0.2 mm 5 m/s 752 mmHg 86%
    22:00 +5°C° 0.2 mm 5 m/s 753 mmHg 82%
    23:00 +5°C° 0.2 mm 4 m/s 754 mmHg 78%

    Demain, 8 Avril, Mercredi

    Heure Température Précipitation Vent Pression Humidité
    00:00 +4°C° 0 mm 4 m/s 755 mmHg 78%
    01:00 +3°C° 0 mm 4 m/s 756 mmHg 78%
    02:00 +3°C° 0 mm 4 m/s 757 mmHg 77%
    03:00 +1°C° 0 mm 4 m/s 757 mmHg 79%
    04:00 +1°C° 0 mm 3 m/s 758 mmHg 81%
    05:00 +1°C° 0 mm 3 m/s 758 mmHg 82%
    06:00 +2°C° 0 mm 3 m/s 758 mmHg 80%
    07:00 +3°C° 0 mm 2 m/s 758 mmHg 79%
    08:00 +4°C° 0 mm 2 m/s 758 mmHg 77%
    09:00 +4°C° 0 mm 3 m/s 758 mmHg 70%
    10:00 +7°C° 0 mm 3 m/s 758 mmHg 64%
    11:00 +8°C° 0 mm 4 m/s 758 mmHg 58%
    12:00 +8°C° 0 mm 4 m/s 757 mmHg 55%
    13:00 +9°C° 0 mm 5 m/s 756 mmHg 51%
    14:00 +9°C° 0 mm 6 m/s 756 mmHg 48%
    15:00 +9°C° 0 mm 6 m/s 755 mmHg 51%
    16:00 +9°C° 0 mm 6 m/s 754 mmHg 54%
    17:00 +8°C° 0 mm 6 m/s 753 mmHg 56%
    18:00 +7°C° 0 mm 5 m/s 752 mmHg 61%
    19:00 +6°C° 0 mm 5 m/s 752 mmHg 65%
    20:00 +5°C° 0 mm 5 m/s 751 mmHg 69%
    21:00 +5°C° 0 mm 5 m/s 750 mmHg 71%
    22:00 +3°C° 0 mm 5 m/s 749 mmHg 72%
    23:00 +3°C° 0 mm 5 m/s 749 mmHg 74%

    Après-demain, 9 Avril, Jeudi

    Heure Température Précipitation Vent Pression Humidité
    00:00 +3°C° 0 mm 5 m/s 748 mmHg 75%
    01:00 +4°C° 0 mm 4 m/s 747 mmHg 77%
    02:00 +3°C° 0 mm 4 m/s 745 mmHg 79%
    03:00 +4°C° 0.1 mm 4 m/s 745 mmHg 80%
    04:00 +4°C° 0.1 mm 4 m/s 745 mmHg 82%
    05:00 +4°C° 0.1 mm 4 m/s 745 mmHg 84%
    06:00 +4°C° 0.1 mm 4 m/s 744 mmHg 84%
    07:00 +3°C° 0.1 mm 4 m/s 744 mmHg 84%
    08:00 +3°C° 0.1 mm 4 m/s 744 mmHg 84%
    09:00 +4°C° 0 mm 3 m/s 745 mmHg 74%
    10:00 +5°C° 0 mm 3 m/s 745 mmHg 64%
    11:00 +7°C° 0 mm 3 m/s 745 mmHg 53%
    12:00 +6°C° 0 mm 4 m/s 745 mmHg 51%
    13:00 +6°C° 0 mm 4 m/s 745 mmHg 49%
    14:00 +7°C° 0 mm 4 m/s 745 mmHg 47%
    15:00 +6°C° 0.1 mm 4 m/s 746 mmHg 48%
    16:00 +6°C° 0.1 mm 4 m/s 746 mmHg 50%
    17:00 +5°C° 0.1 mm 4 m/s 746 mmHg 51%
    18:00 +4°C° 0 mm 4 m/s 746 mmHg 58%
    19:00 +3°C° 0 mm 3 m/s 746 mmHg 65%
    20:00 +3°C° 0 mm 2 m/s 747 mmHg 72%
    21:00 +2°C° 0 mm 3 m/s 747 mmHg 75%
    22:00 +1°C° 0 mm 3 m/s 748 mmHg 77%
    23:00 +1°C° 0 mm 3 m/s 748 mmHg 79%

    10 Avril, Vendredi

    Heure Température Précipitation Vent Pression Humidité
    00:00 +1°C° 0 mm 3 m/s 748 mmHg 81%
    01:00 0°C° 0 mm 3 m/s 749 mmHg 82%
    02:00 0°C° 0 mm 3 m/s 749 mmHg 84%
    03:00 -1°C° 0 mm 2 m/s 749 mmHg 84%
    04:00 -1°C° 0 mm 2 m/s 750 mmHg 84%
    05:00 -1°C° 0 mm 2 m/s 750 mmHg 84%
    06:00 -1°C° 0 mm 2 m/s 750 mmHg 80%
    07:00 +1°C° 0 mm 2 m/s 751 mmHg 76%
    08:00 +1°C° 0 mm 3 m/s 751 mmHg 72%
    09:00 +2°C° 0.2 mm 3 m/s 752 mmHg 69%
    10:00 +3°C° 0.2 mm 3 m/s 752 mmHg 66%
    11:00 +3°C° 0.2 mm 3 m/s 752 mmHg 63%
    12:00 +3°C° 0.3 mm 4 m/s 753 mmHg 62%
    13:00 +3°C° 0.3 mm 4 m/s 753 mmHg 62%
    14:00 +2°C° 0.3 mm 5 m/s 753 mmHg 62%
    15:00 +2°C° 0 mm 5 m/s 753 mmHg 58%
    16:00 +2°C° 0 mm 5 m/s 753 mmHg 54%
    17:00 +3°C° 0 mm 4 m/s 753 mmHg 50%
    18:00 +1°C° 0 mm 4 m/s 754 mmHg 55%
    19:00 -1°C° 0 mm 4 m/s 754 mmHg 60%
    20:00 -1°C° 0 mm 3 m/s 754 mmHg 65%
    21:00 -1°C° 0 mm 3 m/s 755 mmHg 64%
    22:00 -1°C° 0 mm 3 m/s 755 mmHg 63%
    23:00 -1°C° 0 mm 3 m/s 755 mmHg 61%

    11 Avril, Samedi

    Heure Température Précipitation Vent Pression Humidité
    00:00 -2°C° 0 mm 3 m/s 756 mmHg 61%
    01:00 -2°C° 0 mm 2 m/s 756 mmHg 60%
    02:00 -3°C° 0 mm 2 m/s 756 mmHg 60%
    03:00 -3°C° 0 mm 2 m/s 757 mmHg 62%
    04:00 -3°C° 0 mm 2 m/s 757 mmHg 63%
    05:00 -3°C° 0 mm 2 m/s 757 mmHg 65%
    06:00 -2°C° 0 mm 2 m/s 758 mmHg 61%
    07:00 -1°C° 0 mm 2 m/s 758 mmHg 57%
    08:00 +1°C° 0 mm 2 m/s 758 mmHg 52%
    09:00 +2°C° 0 mm 2 m/s 758 mmHg 48%
    10:00 +3°C° 0 mm 2 m/s 758 mmHg 43%
    11:00 +5°C° 0 mm 2 m/s 758 mmHg 38%
    12:00 +4°C° 0 mm 3 m/s 758 mmHg 37%
    13:00 +5°C° 0 mm 3 m/s 757 mmHg 36%
    14:00 +5°C° 0 mm 3 m/s 757 mmHg 34%
    15:00 +5°C° 0 mm 3 m/s 757 mmHg 36%
    16:00 +5°C° 0 mm 3 m/s 756 mmHg 38%
    17:00 +4°C° 0 mm 3 m/s 756 mmHg 39%
    18:00 +3°C° 0 mm 3 m/s 756 mmHg 47%
    19:00 +2°C° 0 mm 2 m/s 756 mmHg 55%
    20:00 +1°C° 0 mm 2 m/s 755 mmHg 62%
    21:00 +1°C° 0 mm 2 m/s 755 mmHg 69%
    22:00 0°C° 0 mm 3 m/s 755 mmHg 76%
    23:00 0°C° 0 mm 3 m/s 754 mmHg 82%

    12 Avril, Dimanche

    Heure Température Précipitation Vent Pression Humidité
    00:00 0°C° 0 mm 3 m/s 754 mmHg 81%
    01:00 -1°C° 0 mm 4 m/s 753 mmHg 81%
    02:00 -1°C° 0 mm 4 m/s 752 mmHg 80%
    03:00 -1°C° 0.3 mm 4 m/s 752 mmHg 85%
    04:00 -1°C° 0.3 mm 5 m/s 751 mmHg 90%
    05:00 -1°C° 0.3 mm 5 m/s 750 mmHg 96%
    06:00 -1°C° 0.4 mm 5 m/s 749 mmHg 96%
    07:00 0°C° 0.4 mm 5 m/s 748 mmHg 96%
    08:00 0°C° 0.4 mm 5 m/s 747 mmHg 96%
    09:00 +1°C° 0.3 mm 5 m/s 747 mmHg 95%
    10:00 +1°C° 0.3 mm 5 m/s 746 mmHg 94%
    11:00 +2°C° 0.3 mm 5 m/s 745 mmHg 94%
    12:00 +2°C° 0.2 mm 5 m/s 744 mmHg 93%
    13:00 +2°C° 0.2 mm 5 m/s 744 mmHg 92%
    14:00 +2°C° 0.2 mm 5 m/s 743 mmHg 91%
    15:00 +3°C° 0.5 mm 5 m/s 742 mmHg 92%
    16:00 +3°C° 0.5 mm 5 m/s 741 mmHg 92%
    17:00 +3°C° 0.5 mm 5 m/s 740 mmHg 92%
    18:00 +3°C° 0.5 mm 5 m/s 739 mmHg 92%
    19:00 +4°C° 0.5 mm 4 m/s 738 mmHg 92%
    20:00 +4°C° 0.5 mm 4 m/s 737 mmHg 92%
    21:00 +4°C° 0.3 mm 4 m/s 737 mmHg 92%
    22:00 +4°C° 0.3 mm 4 m/s 736 mmHg 92%
    23:00 +4°C° 0.3 mm 4 m/s 736 mmHg 91%
    Voir plus